EW2887 Weather Reports


Display with metric or nautical units.
time (UTC)temp
F
wind
direction
speed
MPH
gust
MPH
rain 1hr
in
rain 24hr
in
rain mn
in
humidity
%
barometer
mb
20240523093045 59 180 15.0 25.0 0.00 0.00 0.00 83 1005.4
20240523091544 59 119 15.0 26.0 0.00 0.00 0.00 83 1005.4
20240523090053 58 163 13.0 25.0 0.00 0.00 0.00 82 1005.5
20240523084540 59 165 14.0 24.0 0.00 0.00 0.00 81 1005.4
20240523083037 59 136 15.0 24.0 0.00 0.00 0.00 80 1005.5
20240523081543 59 150 14.0 24.0 0.00 0.00 0.00 77 1005.7
20240523080033 59 144 11.0 23.0 0.00 0.00 0.00 75 1005.6
20240523074528 60 151 11.0 22.0 0.00 0.00 0.00 73 1005.7
20240523073024 61 178 11.0 23.0 0.00 0.00 0.00 71 1005.8
20240523071521 61 151 13.0 22.0 0.00 0.00 0.00 70 1006.0
20240523070019 62 171 12.0 24.0 0.00 0.00 0.00 68 1005.9
20240523064517 62 158 11.0 22.0 0.00 0.00 0.00 66 1005.9
20240523063014 62 164 12.0 23.0 0.00 0.00 0.00 64 1005.9
20240523061511 63 163 9.0 20.0 0.00 0.00 0.00 61 1005.9
20240523060008 63 134 12.0 25.0 0.00 0.00 0.00 59 1006.1
20240523054506 64 132 15.0 27.0 0.00 0.00 0.00 58 1006.1
20240523053002 64 126 12.0 22.0 0.00 0.00 0.00 56 1006.2
20240523051600 64 140 13.0 21.0 0.00 0.00 0.00 55 1006.3
20240523050100 65 122 16.0 28.0 0.00 0.00 0.00 54 1006.4
20240523044555 65 145 12.0 24.0 0.00 0.00 0.00 53 1006.6
20240523043055 66 111 15.0 25.0 0.00 0.00 0.00 53 1006.7
20240523041555 66 111 16.0 25.0 0.00 0.00 0.00 53 1006.7
20240523040054 67 119 15.0 22.0 0.00 0.00 0.00 52 1006.8
20240523034608 67 115 11.0 23.0 0.00 0.00 0.00 52 1006.7
20240523033100 67 115 14.0 22.0 0.00 0.00 0.00 52 1006.6
20240523031603 68 144 13.0 24.0 0.00 0.00 0.00 51 1006.3
20240523030051 68 128 10.0 17.0 0.00 0.00 0.00 51 1006.4
20240523024550 69 114 12.0 20.0 0.00 0.00 0.00 50 1006.2
20240523023050 69 130 12.0 21.0 0.00 0.00 0.00 49 1006.2
20240523021652 70 132 12.0 20.0 0.00 0.00 0.00 48 1006.3
20240523020050 71 140 13.0 21.0 0.00 0.00 0.00 47 1006.2
20240523014548 71 117 12.0 22.0 0.00 0.00 0.00 46 1006.0
20240523013048 72 119 16.0 26.0 0.00 0.00 0.00 45 1006.1
20240523011547 73 117 10.0 24.0 0.00 0.00 0.00 43 1005.9
20240523010047 74 128 7.0 20.0 0.00 0.00 0.00 42 1005.8
20240523004546 75 136 10.0 19.0 0.00 0.00 0.00 40 1005.8
20240523003046 75 117 10.0 18.0 0.00 0.00 0.00 39 1005.9
20240523001545 76 122 14.0 20.0 0.00 0.00 0.00 38 1005.7
20240523000045 77 129 11.0 16.0 0.00 0.00 0.00 36 1005.6
20240522234546 77 132 10.0 14.0 0.00 0.00 0.00 35 1005.6
20240522233047 76 116 9.0 17.0 0.00 0.00 0.00 35 1005.5
20240522231543 77 129 2.0 13.0 0.00 0.00 0.00 34 1005.7
20240522230042 77 172 7.0 19.0 0.00 0.00 0.00 35 1005.8
20240522224540 77 166 9.0 16.0 0.00 0.00 0.00 36 1005.9
20240522223041 76 103 7.0 15.0 0.00 0.00 0.00 35 1005.8
20240522221540 76 76 9.0 17.0 0.00 0.00 0.00 35 1005.9
20240522220038 76 73 8.0 17.0 0.00 0.00 0.00 35 1006.0
20240522214539 76 70 12.0 19.0 0.00 0.00 0.00 36 1006.2
20240522213036 76 67 9.0 14.0 0.00 0.00 0.00 35 1006.3
20240522211538 75 79 6.0 15.0 0.00 0.00 0.00 35 1006.7
20240522210034 74 83 10.0 16.0 0.00 0.00 0.00 37 1006.9
20240522204532 74 81 9.0 17.0 0.00 0.00 0.00 38 1007.0
20240522203032 74 74 9.0 14.0 0.00 0.00 0.00 38 1007.5
20240522201531 73 56 14.0 17.0 0.00 0.00 0.00 39 1007.7
20240522200030 72 84 11.0 15.0 0.00 0.00 0.00 40 1008.0
20240522194529 72 61 11.0 16.0 0.00 0.00 0.00 41 1008.2
20240522193037 71 103 11.0 16.0 0.00 0.00 0.00 42 1008.4
20240522191530 71 34 7.0 15.0 0.00 0.00 0.00 44 1008.8
20240522190027 70 36 5.0 23.0 0.00 0.00 0.00 44 1009.2
20240522184526 70 26 8.0 16.0 0.00 0.00 0.00 43 1009.3
20240522183025 69 29 12.0 17.0 0.00 0.00 0.00 45 1009.6
20240522181529 69 46 9.0 16.0 0.00 0.00 0.00 46 1009.9
20240522180025 68 58 12.0 18.0 0.00 0.00 0.00 46 1010.0
20240522174523 68 34 10.0 18.0 0.00 0.00 0.00 47 1010.2
20240522173029 67 67 9.0 19.0 0.00 0.00 0.00 47 1010.4
20240522171524 67 44 11.0 20.0 0.00 0.00 0.00 50 1010.5
20240522170022 65 22 12.0 18.0 0.00 0.00 0.00 51 1010.6
20240522164521 65 15 13.0 18.0 0.00 0.00 0.00 50 1010.7
20240522163019 64 63 11.0 21.0 0.00 0.00 0.00 52 1011.0
20240522161521 64 28 14.0 20.0 0.00 0.00 0.00 52 1011.0
20240522160018 63 17 13.0 18.0 0.00 0.00 0.00 53 1011.1
20240522154518 62 22 13.0 19.0 0.00 0.00 0.00 54 1011.1
20240522153019 61 41 14.0 20.0 0.00 0.00 0.00 55 1011.1
20240522151520 60 32 15.0 23.0 0.00 0.00 0.00 55 1011.1
20240522150018 60 53 13.0 22.0 0.00 0.00 0.00 58 1011.1
20240522144516 59 26 13.0 19.0 0.00 0.00 0.00 61 1011.2
20240522143014 58 28 16.0 23.0 0.00 0.00 0.00 62 1011.3
20240522141518 57 17 14.0 22.0 0.00 0.00 0.00 63 1011.3
20240522140023 56 55 15.0 25.0 0.00 0.00 0.00 65 1011.2
20240522134515 55 49 17.0 24.0 0.00 0.00 0.00 65 1011.3
20240522133014 54 29 13.0 17.0 0.00 0.00 0.00 67 1011.3
20240522131511 53 13 13.0 20.0 0.00 0.00 0.00 68 1011.3
20240522130010 53 46 11.0 20.0 0.00 0.00 0.00 69 1011.1
20240522124509 52 36 13.0 19.0 0.00 0.00 0.00 69 1011.0
20240522123007 52 23 13.0 20.0 0.00 0.00 0.00 71 1010.8
20240522121506 52 5 10.0 23.0 0.00 0.00 0.00 71 1010.4
20240522120003 52 28 14.0 23.0 0.00 0.00 0.00 71 1010.0
20240522114601 52 5 15.0 21.0 0.00 0.00 0.00 72 1009.7
20240522113110 51 5 15.0 24.0 0.00 0.00 0.00 73 1009.5
20240522111557 51 17 14.0 27.0 0.00 0.00 0.00 74 1009.3
20240522110057 51 340 16.0 23.0 0.00 0.00 0.00 75 1009.0
20240522104559 51 34 13.0 23.0 0.00 0.00 0.00 76 1009.1
20240522103059 51 355 14.0 23.0 0.00 0.00 0.00 77 1008.9
20240522101552 51 34 16.0 25.0 0.00 0.00 0.00 77 1008.8
20240522100108 52 10 16.0 26.0 0.00 0.00 0.00 76 1008.8
20240522094548 52 5 16.0 31.0 0.00 0.00 0.00 75 1008.6